Voltar ao catálogo

STARLINK-34878

AtivoComunicaçõesVLEO
NORAD 65334·PAYLOAD·🇺🇸 United States

Lançado Aug 27, 2025 de Cape Canaveral Space Force Station

Loading…

Próximas Passagens (próximas 24 horas)

TLE

AtualizadoSource: CelesTrak SupGP

Época: Sep 14, 2026, 21:01 UTC

1 65334C 25189M   26257.87618056  .00026877  00000+0  86458-3 0  2579
2 65334  53.1589  46.8372 0001154  81.6522  90.7472 15.31678632    11

Acompanhe STARLINK-34878 em tempo real com AllMySat

Download on the App Store